Location: Mactaquac Provincial Park
(45.9573°N, 66.8897°W)
Time: 11:45:03
(UTC-03:00)

Cosmos 1867 - Visible Passes

Search period start: 23 April 2014 00:00
Search period end: 03 May 2014 00:00
Orbit: 776 x 801 km, 65.0° (Epoch: 22 April)

Date Brightness Start Highest point End Pass type
(mag) Time Alt. Az. Time Alt. Az. Time Alt. Az.
23 Apr 5.8 01:41:40 15° E 01:41:40 15° E 01:43:12 10° ENE visible
23 Apr 3.4 03:22:19 76° WSW 03:22:41 82° NW 03:28:11 10° NE visible
23 Apr 5.4 05:03:01 10° W 05:07:07 21° NNW 05:11:14 10° NNE visible
24 Apr 3.6 02:51:28 74° E 02:51:28 74° E 02:56:35 10° NE visible
24 Apr 5.2 04:32:07 15° W 04:35:17 25° NW 04:39:47 10° NNE visible
25 Apr 4.1 02:20:34 50° ENE 02:20:34 50° ENE 02:24:56 10° NE visible
25 Apr 4.9 04:01:13 22° W 04:03:30 30° NW 04:08:19 10° NNE visible
25 Apr 6.0 05:46:56 10° NW 05:48:56 12° NNW 05:50:57 10° N visible
26 Apr 4.7 01:49:38 35° ENE 01:49:38 35° ENE 01:53:13 10° NE visible
26 Apr 4.6 03:30:16 32° WNW 03:31:45 37° NW 03:36:50 10° NNE visible
26 Apr 5.9 05:14:24 10° NW 05:16:58 13° NNW 05:19:33 10° N visible
27 Apr 5.2 01:18:39 25° ENE 01:18:39 25° ENE 01:21:25 10° NE visible
27 Apr 4.2 02:59:17 44° WNW 03:00:02 47° NW 03:05:19 10° NNE visible
27 Apr 5.9 04:41:56 10° WNW 04:45:02 15° NNW 04:48:08 10° NNE visible
28 Apr 5.5 00:47:38 18° ENE 00:47:38 18° ENE 00:49:31 10° ENE visible
28 Apr 3.8 02:28:16 59° NW 02:28:22 60° NW 02:33:48 10° NNE visible
28 Apr 5.8 04:09:32 10° WNW 04:13:07 17° NNW 04:16:42 10° NNE visible
29 Apr 5.8 00:16:34 13° ENE 00:16:34 13° ENE 00:17:25 10° ENE visible
29 Apr 3.7 01:57:12 71° N 01:57:12 71° N 02:02:14 10° NE visible
29 Apr 5.6 03:37:50 12° WNW 03:41:14 20° NNW 03:45:15 10° NNE visible
29 Apr 6.3 05:26:36 10° N 05:27:06 10° N 05:27:35 10° N visible
30 Apr 3.9 01:26:04 62° NE 01:26:04 62° NE 01:30:38 10° NE visible
30 Apr 5.4 03:06:42 17° WNW 03:09:24 24° NW 03:13:48 10° NNE visible
30 Apr 6.2 04:53:50 10° NNW 04:55:05 11° N 04:56:19 10° N visible
01 May 4.1 00:54:53 48° ENE 00:54:53 48° ENE 00:59:00 10° NE visible
01 May 5.1 02:35:30 23° WNW 02:37:36 29° NW 02:42:20 10° NNE visible
01 May 6.2 04:21:13 10° NW 04:23:05 12° NNW 04:24:57 10° N visible
02 May 4.5 00:23:37 37° ENE 00:23:37 37° ENE 00:27:18 10° NE visible
02 May 4.8 02:04:15 30° WNW 02:05:50 35° NW 02:10:51 10° NNE visible
02 May 6.1 03:48:40 10° NW 03:51:06 13° NNW 03:53:33 10° N visible
02 May 6.5 05:36:18 10° N 05:37:19 10° N 05:38:19 10° NNE visible
02 May 4.7 23:52:16 29° E 23:52:16 29° E 23:55:32 10° NE visible
